Hourly Weather Ruzhany

Today, 14 April, Wednesday

Time Temperature Precipitation Wind Pressure Humidity
00:00 +1°C° 0.1 mm 6 mps 750 mmHg 92%
01:00 +1°C° 0.1 mm 6 mps 749 mmHg 92%
02:00 +1°C° 0 mm 6 mps 749 mmHg 92%
03:00 +1°C° 0 mm 6 mps 749 mmHg 92%
04:00 +1°C° 0 mm 6 mps 749 mmHg 92%
05:00 +1°C° 0 mm 5 mps 748 mmHg 92%
06:00 +1°C° 0.1 mm 5 mps 748 mmHg 92%
07:00 +1°C° 0.1 mm 5 mps 748 mmHg 92%
08:00 +1°C° 0.1 mm 5 mps 748 mmHg 92%
09:00 +1°C° 0.2 mm 5 mps 748 mmHg 92%
10:00 +1°C° 0.2 mm 5 mps 748 mmHg 92%
11:00 +1°C° 0.2 mm 5 mps 748 mmHg 92%
12:00 +1°C° 0.3 mm 5 mps 748 mmHg 92%
13:00 +1°C° 0.3 mm 5 mps 748 mmHg 93%
14:00 +1°C° 0.3 mm 5 mps 747 mmHg 93%
15:00 +1°C° 0.3 mm 5 mps 747 mmHg 94%
16:00 +1°C° 0.3 mm 5 mps 747 mmHg 94%
17:00 +1°C° 0.3 mm 5 mps 747 mmHg 94%
18:00 +1°C° 0.6 mm 5 mps 747 mmHg 95%
19:00 +1°C° 0.6 mm 5 mps 747 mmHg 95%
20:00 +1°C° 0.6 mm 5 mps 747 mmHg 95%
21:00 +1°C° 0.3 mm 5 mps 747 mmHg 96%
22:00 +3°C° 0.3 mm 4 mps 747 mmHg 96%
23:00 +3°C° 0.3 mm 4 mps 746 mmHg 97%

Tomorrow, 15 April, Thursday

Time Temperature Precipitation Wind Pressure Humidity
00:00 +3°C° 0.2 mm 4 mps 746 mmHg 97%
01:00 +4°C° 0.2 mm 3 mps 746 mmHg 98%
02:00 +4°C° 0.2 mm 3 mps 746 mmHg 98%
03:00 +4°C° 0.3 mm 3 mps 746 mmHg 98%
04:00 +5°C° 0.3 mm 2 mps 746 mmHg 98%
05:00 +5°C° 0.3 mm 2 mps 746 mmHg 98%
06:00 +5°C° 0.3 mm 2 mps 746 mmHg 98%
07:00 +5°C° 0.3 mm 2 mps 747 mmHg 97%
08:00 +6°C° 0.3 mm 1 mps 747 mmHg 97%
09:00 +6°C° 0.3 mm 1 mps 747 mmHg 95%
10:00 +7°C° 0.3 mm 1 mps 748 mmHg 94%
11:00 +6°C° 0.3 mm 0 mps 748 mmHg 93%
12:00 +7°C° 0.3 mm 1 mps 748 mmHg 93%
13:00 +8°C° 0.3 mm 1 mps 748 mmHg 93%
14:00 +8°C° 0.3 mm 1 mps 748 mmHg 92%
15:00 +7°C° 0.1 mm 2 mps 748 mmHg 92%
16:00 +7°C° 0.1 mm 2 mps 748 mmHg 92%
17:00 +7°C° 0.1 mm 3 mps 748 mmHg 92%
18:00 +7°C° 0 mm 3 mps 748 mmHg 93%
19:00 +5°C° 0 mm 3 mps 748 mmHg 93%
20:00 +4°C° 0 mm 3 mps 748 mmHg 93%
21:00 +4°C° 0.2 mm 3 mps 748 mmHg 94%
22:00 +4°C° 0.2 mm 3 mps 748 mmHg 95%
23:00 +4°C° 0.2 mm 3 mps 747 mmHg 96%

Day after tomorrow, 16 April, Friday

Time Temperature Precipitation Wind Pressure Humidity
00:00 +4°C° 0.4 mm 3 mps 747 mmHg 96%
01:00 +4°C° 0.4 mm 3 mps 747 mmHg 96%
02:00 +4°C° 0.4 mm 3 mps 747 mmHg 97%
03:00 +4°C° 0.3 mm 3 mps 746 mmHg 97%
04:00 +4°C° 0.3 mm 4 mps 746 mmHg 97%
05:00 +4°C° 0.3 mm 4 mps 746 mmHg 97%
06:00 +4°C° 0.6 mm 4 mps 746 mmHg 97%
07:00 +5°C° 0.6 mm 4 mps 746 mmHg 96%
08:00 +5°C° 0.6 mm 4 mps 746 mmHg 96%
09:00 +6°C° 0.1 mm 4 mps 746 mmHg 94%
10:00 +7°C° 0.1 mm 4 mps 746 mmHg 91%
11:00 +8°C° 0.1 mm 4 mps 747 mmHg 89%
12:00 +8°C° 0 mm 4 mps 747 mmHg 88%
13:00 +8°C° 0 mm 4 mps 747 mmHg 87%
14:00 +10°C° 0 mm 4 mps 747 mmHg 86%
15:00 +10°C° 0.1 mm 4 mps 747 mmHg 87%
16:00 +10°C° 0.1 mm 4 mps 747 mmHg 88%
17:00 +10°C° 0.1 mm 4 mps 748 mmHg 88%
18:00 +8°C° 0.3 mm 4 mps 748 mmHg 89%
19:00 +8°C° 0.3 mm 4 mps 748 mmHg 91%
20:00 +8°C° 0.3 mm 5 mps 748 mmHg 92%
21:00 +8°C° 0.5 mm 4 mps 748 mmHg 93%
22:00 +7°C° 0.5 mm 4 mps 749 mmHg 94%
23:00 +7°C° 0.5 mm 4 mps 749 mmHg 95%

17 April, Saturday

Time Temperature Precipitation Wind Pressure Humidity
00:00 +7°C° 0.2 mm 4 mps 749 mmHg 95%
01:00 +7°C° 0.2 mm 4 mps 749 mmHg 95%
02:00 +8°C° 0.2 mm 3 mps 749 mmHg 95%
03:00 +8°C° 0 mm 3 mps 749 mmHg 95%
04:00 +7°C° 0 mm 3 mps 749 mmHg 94%
05:00 +7°C° 0 mm 3 mps 750 mmHg 94%
06:00 +7°C° 0 mm 3 mps 750 mmHg 91%
07:00 +8°C° 0 mm 3 mps 750 mmHg 88%
08:00 +8°C° 0 mm 3 mps 750 mmHg 86%
09:00 +8°C° 0.2 mm 4 mps 750 mmHg 81%
10:00 +10°C° 0.2 mm 4 mps 750 mmHg 76%
11:00 +12°C° 0.2 mm 5 mps 750 mmHg 70%
12:00 +12°C° 0.2 mm 5 mps 751 mmHg 68%
13:00 +12°C° 0.2 mm 5 mps 751 mmHg 66%
14:00 +12°C° 0.2 mm 5 mps 751 mmHg 63%
15:00 +12°C° 0.1 mm 5 mps 751 mmHg 65%
16:00 +12°C° 0.1 mm 5 mps 751 mmHg 67%
17:00 +11°C° 0.1 mm 4 mps 751 mmHg 69%
18:00 +10°C° 0.1 mm 3 mps 752 mmHg 75%
19:00 +9°C° 0.1 mm 3 mps 752 mmHg 81%
20:00 +8°C° 0.1 mm 2 mps 752 mmHg 87%
21:00 +7°C° 0 mm 2 mps 752 mmHg 89%
22:00 +7°C° 0 mm 2 mps 752 mmHg 91%
23:00 +6°C° 0 mm 2 mps 752 mmHg 93%

18 April, Sunday

Time Temperature Precipitation Wind Pressure Humidity
00:00 +7°C° 0 mm 1 mps 752 mmHg 93%
01:00 +7°C° 0 mm 1 mps 752 mmHg 93%
02:00 +7°C° 0 mm 1 mps 752 mmHg 93%
03:00 +7°C° 0 mm 1 mps 752 mmHg 93%
04:00 +7°C° 0 mm 1 mps 752 mmHg 92%
05:00 +7°C° 0 mm 1 mps 752 mmHg 92%
06:00 +7°C° 0 mm 1 mps 752 mmHg 90%
07:00 +8°C° 0 mm 1 mps 752 mmHg 88%
08:00 +9°C° 0 mm 1 mps 752 mmHg 86%
09:00 +9°C° 0 mm 2 mps 752 mmHg 82%
10:00 +10°C° 0 mm 2 mps 752 mmHg 79%
11:00 +11°C° 0 mm 3 mps 753 mmHg 75%
12:00 +11°C° 0.1 mm 3 mps 753 mmHg 75%
13:00 +11°C° 0.1 mm 3 mps 752 mmHg 76%
14:00 +12°C° 0.1 mm 4 mps 752 mmHg 76%
15:00 +12°C° 0.1 mm 3 mps 752 mmHg 79%
16:00 +11°C° 0.1 mm 3 mps 752 mmHg 81%
17:00 +11°C° 0.1 mm 3 mps 752 mmHg 83%
18:00 +11°C° 0.2 mm 3 mps 752 mmHg 85%
19:00 +10°C° 0.2 mm 3 mps 752 mmHg 86%
20:00 +9°C° 0.2 mm 3 mps 753 mmHg 87%
21:00 +9°C° 0 mm 3 mps 753 mmHg 88%
22:00 +8°C° 0 mm 3 mps 753 mmHg 89%
23:00 +7°C° 0 mm 3 mps 753 mmHg 90%

19 April, Monday

Time Temperature Precipitation Wind Pressure Humidity
00:00 +7°C° 0 mm 3 mps 753 mmHg 89%
01:00 +8°C° 0 mm 3 mps 753 mmHg 88%
02:00 +8°C° 0 mm 3 mps 753 mmHg 87%
03:00 +7°C° 0 mm 4 mps 753 mmHg 85%
04:00 +7°C° 0 mm 4 mps 753 mmHg 84%
05:00 +7°C° 0 mm 4 mps 753 mmHg 83%
06:00 +7°C° 0 mm 4 mps 753 mmHg 83%
07:00 +7°C° 0 mm 5 mps 753 mmHg 83%
08:00 +7°C° 0 mm 5 mps 753 mmHg 83%
09:00 +8°C° 0 mm 5 mps 753 mmHg 81%
10:00 +9°C° 0 mm 5 mps 753 mmHg 78%
11:00 +9°C° 0 mm 5 mps 753 mmHg 76%
12:00 +10°C° 0.1 mm 6 mps 753 mmHg 74%
13:00 +10°C° 0.1 mm 6 mps 753 mmHg 72%
14:00 +11°C° 0.1 mm 6 mps 753 mmHg 70%
15:00 +12°C° 0 mm 5 mps 753 mmHg 70%
16:00 +12°C° 0 mm 5 mps 753 mmHg 69%
17:00 +12°C° 0 mm 4 mps 752 mmHg 69%
18:00 +12°C° 0 mm 4 mps 752 mmHg 71%
19:00 +11°C° 0 mm 4 mps 752 mmHg 72%
20:00 +11°C° 0 mm 4 mps 752 mmHg 74%
21:00 +10°C° 0 mm 4 mps 752 mmHg 77%
22:00 +8°C° 0 mm 4 mps 752 mmHg 80%
23:00 +7°C° 0 mm 4 mps 752 mmHg 84%
Show more